Regional Weather Roundup
Issued by NWS

Home | Current Version | Previous Version | Graphics & Text | Print | Product List | Glossary On
Versions: 1 2 3 4 5 6 7 8 9 10 11 12 13 14 15 16 17 18 19 20 21 22 23 24 25 26 27 28 29 30 31 32 33 34 35 36 37 38 39 40 41 42 43 44 45 46 47 48 49 50
000
ASUS43 KDTX 211310
RWRMI
MICHIGAN HOURLY REGIONAL WEATHER ROUNDUP
NATIONAL WEATHER SERVICE DETROIT/PONTIAC MI
ISSUED BY NATIONAL WEATHER SERVICE GRAND RAPIDS MI
800 AM EST SAT JAN 21 2017

NOTE: "FAIR" INDICATES FEW OR NO CLOUDS BELOW 12,000 FEET WITH NO
SIGNIFICANT WEATHER AND/OR OBSTRUCTION TO VISIBILITY.

MIZ047>049-052>055-059>063-066>070-074>076-081>083-211400-
SOUTHEAST LOWER MICHIGAN

CITY           SKY/WX    TMP DP  RH WIND       PRES   REMARKS
ADRIAN         FOG       40  40 100 CALM      29.68S VSB 1/2
ALMA           FOG       36  36 100 E5        29.65F VSB 1/2 WCI  32
ANN ARBOR      FOG       40  40 100 CALM      29.68F VSB 1/4
BAD AXE        CLOUDY    36  36 100 SE5       29.71F FOG     WCI  32
DETROIT CITY   CLOUDY    38  38 100 E3        29.70F FOG
DETROIT        FOG       41  41 100 CALM      29.70S VSB 1/4
FLINT          CLOUDY    40  39  97 E6        29.67F FOG
GROSSE ILE       N/A     41  40  99 SE3       29.68F FOG
HILLSDALE      FOG       43  43 100 SE7       29.66S VSB 1/4
HOWELL         CLOUDY    43  42  96 SE8       29.66F FOG

CITY           SKY/WX    TMP DP  RH WIND       PRES   REMARKS
JACKSON        MOCLDY    44  42  93 SE8       29.65F FOG
LANSING        CLOUDY    44  42  93 SE6       29.65S FOG
MASON          MOCLDY    44  44 100 SE7       29.65F FOG
MONROE         FOG       38  38 100 CALM      29.68S VSB 1/2
MT. CLEMENS    FOG       37  37 100 E2        29.68F VSB 1/4
PONTIAC        FOG       39  37  92 E3        29.67F VSB 1/4
PORT HOPE        N/A     36  36 100 SE8       29.70F WCI  30
PORT HURON     FOG       37  37 100 CALM      29.71F VSB 1/4
TRI CITIES     CLOUDY    37  37 100 E7        29.67F FOG     WCI  32
YPSILANTI      FOG       41  41 100 E6        29.69F VSB 1/4
$$
MIZ043>046-050>051-056>058-064>065-071>073-077>080-211400-
SOUTHWEST LOWER MICHIGAN

CITY           SKY/WX    TMP DP  RH WIND       PRES   REMARKS
BENTON HARBOR  CLOUDY    50  47  89 S10       29.59S
BIG RAPIDS     FOG       34  34  98 CALM      29.62F VSB 3/4
COLDWATER      CLEAR     46  46 100 SE7       29.64S FOG
HOLLAND        CLEAR     44  43  96 SE7       29.59F
GRAND RAPIDS   FOG       40  38  93 E6        29.61F VSB 1/8
KALAMAZOO      CLEAR     47  44  90 S5        29.62F FOG
MARSHALL       CLOUDY    46  45  98 CALM      29.64S FOG
MOUNT PLEASANT FOG       34  34  99 CALM      29.66S VSB 1/2
MUSKEGON       CLOUDY    42  41  96 E8        29.59F FOG
STURGIS        CLEAR     45  45  99 SE8       29.62F FOG
$$
MIZ016>042-211400-
NORTHERN LOWER MICHIGAN

CITY           SKY/WX    TMP DP  RH WIND       PRES   REMARKS
ALPENA         CLOUDY    32  31  96 SE5       29.70S FOG     WCI  27
BEAVER ISLAND  CLOUDY    34  34 100 E6        29.65R FOG     WCI  28
BELLAIRE       CLOUDY    34  33  96 CALM      29.65S
CADILLAC       CLOUDY    34  33  96 E7        29.61F FOG     WCI  28
CHARLEVOIX     MOCLDY    34  34 100 E3        29.67F
GAYLORD        FOG       34  31  88 S6        29.64R VSB 1/2 WCI  29
HOUGHTON LAKE  CLOUDY    33  32  96 E7        29.66S WCI  27
MANISTEE       CLOUDY    37  36  96 E7        29.60R WCI  32
OSCODA         FOG       34  33  97 SW5       29.70S VSB 1/4 WCI  30
PELLSTON       CLOUDY    33  31  92 SE6       29.67S FOG     WCI  28
TRAVERSE CITY  LGT RAIN  37  35  92 CALM      29.62F
LUDINGTON      CLOUDY    37  37 100 SE8       29.59S FOG     WCI  31
$$
MIZ007>008-015-211400-
EASTERN UPPER MICHIGAN

CITY           SKY/WX    TMP DP  RH WIND       PRES   REMARKS
KINROSS        FOG      N/A N/A N/A E8        29.67F VSB 1/4
MACKINAC ISLAN CLOUDY    33  33 100 E12       29.64F FOG     WCI  24
NEWBERRY       FOG       32  32  99 E6        29.64F VSB 1/4 WCI  26
S. S. MARIE    CLOUDY    33  32  96 E6        29.68F FOG     WCI  28
$$
MIZ004>006-011>014-085-211400-
CENTRAL UPPER MICHIGAN

CITY           SKY/WX    TMP DP  RH WIND       PRES   REMARKS
MANISTIQUE     CLOUDY    33  33  97 SE3       29.63S FOG
ESCANABA       FOG       34  34 100 E3        29.62F VSB 1
SAWYER-GWINN   FOG       32  32 100 CALM      29.60S VSB 1/2
$$
MIZ001>003-009>011-084-211400-
WESTERN UPPER MICHIGAN

CITY           SKY/WX    TMP DP  RH WIND       PRES   REMARKS
IRON MOUNTAIN  FOG       32  30  92 SE3       29.56F VSB 1/4
HOUGHTON       FOG       34  32  92 E6        29.57S VSB 1/4 WCI  29
COPPER HARBOR    N/A     37  34  89 VRB6      29.59F WCI  32
IRONWOOD       CLOUDY    34  33  96 NE3       29.53F
$$

ABBREVIATIONS USED IN REMARKS
   TC - TEMPERATURE IN CELSIUS
  WCI - WIND CHILL INDEX
   HX - HEAT INDEX
  VSB - VISIBILITY





USA.gov is the U.S. government's official web portal to all federal, state and local government web resources and services.